Time,TemperatureF,DewpointF,PressureIn,WindDirection,WindDirectionDegrees,WindSpeedMPH,WindSpeedGustMPH,Humidity,HourlyPrecipIn,Conditions,Clouds,dailyrainin,SoftwareType,DateUTC
2013-01-20 00:00:00,43.0,32.0,30.18,NW,310,4.0,6.0,64,-99.99,,,-99.99,,2013-01-20 06:00:00,
2013-01-20 00:02:00,44.0,33.0,30.17,NW,310,4.0,6.0,66,-99.99,,,-99.99,,2013-01-20 06:02:00,
2013-01-20 00:12:00,44.0,33.0,30.17,NNW,330,5.0,8.0,65,-99.99,,,-99.99,,2013-01-20 06:12:00,
2013-01-20 00:22:00,44.0,33.0,30.17,NNW,330,5.0,8.0,65,-99.99,,,-99.99,,2013-01-20 06:22:00,
2013-01-20 00:33:00,44.0,32.0,30.18,NW,325,5.0,9.0,63,-99.99,,,-99.99,,2013-01-20 06:33:00,
2013-01-20 00:42:00,43.0,32.0,30.18,NW,310,4.0,6.0,64,-99.99,,,-99.99,,2013-01-20 06:42:00,
2013-01-20 00:52:00,43.0,32.0,30.18,NW,310,4.0,6.0,64,-99.99,,,-99.99,,2013-01-20 06:52:00,
2013-01-20 01:12:00,43.0,30.0,30.18,North,350,7.0,10.0,60,-99.99,,,-99.99,,2013-01-20 07:12:00,
2013-01-20 01:22:00,43.0,30.0,30.18,North,350,7.0,10.0,60,-99.99,,,-99.99,,2013-01-20 07:22:00,
2013-01-20 01:32:00,43.0,29.0,30.18,NNW,345,6.0,9.0,58,-99.99,,,-99.99,,2013-01-20 07:32:00,
2013-01-20 01:42:00,42.0,29.0,30.19,North,350,7.0,10.0,58,-99.99,,,-99.99,,2013-01-20 07:42:00,
2013-01-20 01:52:00,42.0,29.0,30.19,North,350,7.0,10.0,58,-99.99,,,-99.99,,2013-01-20 07:52:00,
2013-01-20 02:02:00,42.0,28.0,30.19,NNW,340,6.0,9.0,58,-99.99,,,-99.99,,2013-01-20 08:02:00,
2013-01-20 02:12:00,42.0,28.0,30.19,NNW,335,4.0,7.0,57,-99.99,,,-99.99,,2013-01-20 08:12:00,
2013-01-20 02:22:00,42.0,28.0,30.19,NNW,335,4.0,7.0,57,-99.99,,,-99.99,,2013-01-20 08:22:00,
2013-01-20 02:32:00,41.0,27.0,30.19,NW,320,3.0,5.0,57,-99.99,,,-99.99,,2013-01-20 08:32:00,
2013-01-20 02:42:00,41.0,27.0,30.19,NNW,330,4.0,5.0,57,-99.99,,,-99.99,,2013-01-20 08:42:00,
2013-01-20 02:52:00,41.0,27.0,30.19,NNW,330,4.0,5.0,57,-99.99,,,-99.99,,2013-01-20 08:52:00,
2013-01-20 03:02:00,41.0,27.0,30.19,NNW,340,4.0,5.0,58,-99.99,,,-99.99,,2013-01-20 09:02:00,
2013-01-20 03:12:00,40.0,26.0,30.20,NW,320,4.0,5.0,57,-99.99,,,-99.99,,2013-01-20 09:12:00,
2013-01-20 03:22:00,40.0,26.0,30.20,NW,320,4.0,5.0,57,-99.99,,,-99.99,,2013-01-20 09:22:00,
2013-01-20 03:33:00,39.0,27.0,30.20,NW,325,4.0,5.0,60,-99.99,,,-99.99,,2013-01-20 09:33:00,
2013-01-20 03:42:00,38.0,26.0,30.21,NW,320,4.0,6.0,61,-99.99,,,-99.99,,2013-01-20 09:42:00,
2013-01-20 03:52:00,38.0,26.0,30.21,North,355,6.0,11.0,61,-99.99,,,-99.99,,2013-01-20 09:52:00,
2013-01-20 04:02:00,38.0,26.0,30.21,North,355,6.0,11.0,61,-99.99,,,-99.99,,2013-01-20 10:02:00,
2013-01-20 04:12:00,38.0,26.0,30.21,NNW,345,7.0,10.0,61,-99.99,,,-99.99,,2013-01-20 10:12:00,
2013-01-20 04:22:00,38.0,26.0,30.21,NNW,345,7.0,10.0,61,-99.99,,,-99.99,,2013-01-20 10:22:00,
2013-01-20 04:32:00,38.0,26.0,30.21,North,350,6.0,9.0,61,-99.99,,,-99.99,,2013-01-20 10:32:00,
2013-01-20 04:42:00,38.0,26.0,30.21,NNW,330,4.0,7.0,61,-99.99,,,-99.99,,2013-01-20 10:42:00,
2013-01-20 04:52:00,38.0,26.0,30.21,NNW,330,4.0,7.0,61,-99.99,,,-99.99,,2013-01-20 10:52:00,
2013-01-20 05:02:00,37.0,26.0,30.21,North,0,5.0,6.0,63,-99.99,,,-99.99,,2013-01-20 11:02:00,
2013-01-20 05:12:00,38.0,26.0,30.20,North,0,4.0,6.0,63,-99.99,,,-99.99,,2013-01-20 11:12:00,
2013-01-20 05:22:00,38.0,26.0,30.20,North,0,4.0,6.0,63,-99.99,,,-99.99,,2013-01-20 11:22:00,
2013-01-20 05:33:00,37.0,26.0,30.21,NNW,340,3.0,6.0,66,-99.99,,,-99.99,,2013-01-20 11:33:00,
2013-01-20 05:42:00,36.0,26.0,30.21,North,0,6.0,10.0,67,-99.99,,,-99.99,,2013-01-20 11:42:00,
2013-01-20 05:53:00,36.0,26.0,30.21,North,0,6.0,10.0,67,-99.99,,,-99.99,,2013-01-20 11:53:00,
2013-01-20 06:03:00,35.0,26.0,30.21,North,0,8.0,12.0,69,-99.99,,,-99.99,,2013-01-20 12:03:00,
2013-01-20 06:12:00,35.0,27.0,30.21,NNE,15,7.0,11.0,70,-99.99,,,-99.99,,2013-01-20 12:12:00,
2013-01-20 06:23:00,35.0,27.0,30.21,NNE,15,7.0,11.0,70,-99.99,,,-99.99,,2013-01-20 12:23:00,
2013-01-20 06:33:00,35.0,26.0,30.19,NNE,20,7.0,12.0,71,-99.99,,,-99.99,,2013-01-20 12:33:00,
2013-01-20 06:43:00,35.0,26.0,30.20,North,10,6.0,11.0,71,-99.99,,,-99.99,,2013-01-20 12:43:00,
2013-01-20 06:52:00,35.0,26.0,30.20,North,10,6.0,11.0,71,-99.99,,,-99.99,,2013-01-20 12:52:00,
2013-01-20 07:03:00,35.0,26.0,30.21,North,0,7.0,11.0,71,-99.99,,,-99.99,,2013-01-20 13:03:00,
2013-01-20 07:12:00,35.0,26.0,30.21,NNE,15,7.0,9.0,72,-99.99,,,-99.99,,2013-01-20 13:12:00,
2013-01-20 07:23:00,35.0,26.0,30.21,NNE,15,7.0,9.0,72,-99.99,,,-99.99,,2013-01-20 13:23:00,
2013-01-20 07:33:00,35.0,25.0,30.22,NNE,15,5.0,10.0,67,-99.99,,,-99.99,,2013-01-20 13:33:00,
2013-01-20 07:43:00,34.0,25.0,30.22,NNE,15,5.0,8.0,68,-99.99,,,-99.99,,2013-01-20 13:43:00,
2013-01-20 07:52:00,34.0,25.0,30.22,NNE,15,5.0,8.0,68,-99.99,,,-99.99,,2013-01-20 13:52:00,
2013-01-20 08:02:00,34.0,24.0,30.23,NNE,25,3.0,7.0,66,-99.99,,,-99.99,,2013-01-20 14:02:00,
2013-01-20 08:12:00,33.0,23.0,30.23,North,0,5.0,7.0,65,-99.99,,,-99.99,,2013-01-20 14:12:00,
2013-01-20 08:23:00,33.0,23.0,30.23,North,0,5.0,7.0,65,-99.99,,,-99.99,,2013-01-20 14:23:00,
2013-01-20 08:33:00,33.0,22.0,30.23,NNE,15,3.0,6.0,63,-99.99,,,-99.99,,2013-01-20 14:33:00,
2013-01-20 08:43:00,33.0,22.0,30.23,NNE,30,2.0,5.0,63,-99.99,,,-99.99,,2013-01-20 14:43:00,
2013-01-20 08:53:00,33.0,22.0,30.23,NNE,30,2.0,5.0,63,-99.99,,,-99.99,,2013-01-20 14:53:00,
2013-01-20 09:03:00,33.0,23.0,30.22,ENE,75,5.0,7.0,65,-99.99,,,-99.99,,2013-01-20 15:03:00,
2013-01-20 09:12:00,34.0,24.0,30.23,East,80,5.0,6.0,67,-99.99,,,-99.99,,2013-01-20 15:12:00,
2013-01-20 09:23:00,34.0,24.0,30.23,East,80,5.0,6.0,67,-99.99,,,-99.99,,2013-01-20 15:23:00,
2013-01-20 09:33:00,35.0,24.0,30.23,ENE,65,4.0,8.0,64,-99.99,,,-99.99,,2013-01-20 15:33:00,
2013-01-20 09:42:00,36.0,22.0,30.22,ENE,75,9.0,13.0,56,-99.99,,,-99.99,,2013-01-20 15:42:00,
2013-01-20 09:52:00,36.0,22.0,30.22,ENE,75,9.0,13.0,56,-99.99,,,-99.99,,2013-01-20 15:52:00,
2013-01-20 10:03:00,36.0,14.0,30.22,East,85,12.0,15.0,40,-99.99,,,-99.99,,2013-01-20 16:03:00,
2013-01-20 10:12:00,37.0,14.0,30.22,East,80,10.0,15.0,37,-99.99,,,-99.99,,2013-01-20 16:12:00,
2013-01-20 10:23:00,37.0,14.0,30.22,East,80,10.0,15.0,37,-99.99,,,-99.99,,2013-01-20 16:23:00,
2013-01-20 10:33:00,38.0,12.0,30.23,ENE,70,9.0,13.0,33,-99.99,,,-99.99,,2013-01-20 16:33:00,
2013-01-20 10:43:00,40.0,14.0,30.23,NE,45,8.0,13.0,35,-99.99,,,-99.99,,2013-01-20 16:43:00,
2013-01-20 10:52:00,40.0,14.0,30.23,NE,45,8.0,13.0,35,-99.99,,,-99.99,,2013-01-20 16:52:00,
2013-01-20 11:03:00,40.0,10.0,30.24,ENE,60,9.0,12.0,29,-99.99,,,-99.99,,2013-01-20 17:03:00,
2013-01-20 11:13:00,41.0,12.0,30.25,East,80,8.0,11.0,30,-99.99,,,-99.99,,2013-01-20 17:13:00,
2013-01-20 11:22:00,41.0,12.0,30.25,East,80,8.0,11.0,30,-99.99,,,-99.99,,2013-01-20 17:22:00,
2013-01-20 11:33:00,42.0,11.0,30.23,ENE,70,8.0,12.0,28,-99.99,,,-99.99,,2013-01-20 17:33:00,
2013-01-20 11:42:00,43.0,13.0,30.23,NE,45,5.0,12.0,30,-99.99,,,-99.99,,2013-01-20 17:42:00,
2013-01-20 11:52:00,43.0,13.0,30.23,NE,45,5.0,12.0,30,-99.99,,,-99.99,,2013-01-20 17:52:00,
2013-01-20 12:03:00,42.0,11.0,30.22,ENE,70,6.0,9.0,28,-99.99,,,-99.99,,2013-01-20 18:03:00,
2013-01-20 12:13:00,42.0,10.0,30.22,East,85,5.0,10.0,26,-99.99,,,-99.99,,2013-01-20 18:13:00,
2013-01-20 12:23:00,42.0,10.0,30.22,East,85,5.0,10.0,26,-99.99,,,-99.99,,2013-01-20 18:23:00,
2013-01-20 12:33:00,44.0,11.0,30.21,ENE,65,5.0,9.0,25,-99.99,,,-99.99,,2013-01-20 18:33:00,
2013-01-20 12:43:00,45.0,11.0,30.20,South,180,4.0,10.0,25,-99.99,,,-99.99,,2013-01-20 18:43:00,
2013-01-20 12:53:00,45.0,11.0,30.20,South,180,4.0,10.0,25,-99.99,,,-99.99,,2013-01-20 18:53:00,
2013-01-20 13:02:00,47.0,13.0,30.18,ESE,110,5.0,10.0,25,-99.99,,,-99.99,,2013-01-20 19:02:00,
2013-01-20 13:12:00,46.0,12.0,30.18,SE,130,4.0,10.0,25,-99.99,,,-99.99,,2013-01-20 19:12:00,
2013-01-20 13:22:00,46.0,12.0,30.18,SE,130,4.0,10.0,25,-99.99,,,-99.99,,2013-01-20 19:22:00,
2013-01-20 13:33:00,47.0,12.0,30.17,NNE,15,2.0,6.0,24,-99.99,,,-99.99,,2013-01-20 19:33:00,
2013-01-20 13:43:00,48.0,14.0,30.16,East,95,4.0,9.0,25,-99.99,,,-99.99,,2013-01-20 19:43:00,
2013-01-20 13:52:00,48.0,14.0,30.16,East,95,4.0,9.0,25,-99.99,,,-99.99,,2013-01-20 19:52:00,
2013-01-20 14:03:00,47.0,11.0,30.16,SE,125,3.0,6.0,23,-99.99,,,-99.99,,2013-01-20 20:03:00,
2013-01-20 14:12:00,48.0,13.0,30.15,SSE,150,2.0,6.0,24,-99.99,,,-99.99,,2013-01-20 20:12:00,
2013-01-20 14:23:00,48.0,13.0,30.15,SSE,150,2.0,6.0,24,-99.99,,,-99.99,,2013-01-20 20:23:00,
2013-01-20 14:33:00,47.0,13.0,30.15,South,190,2.0,4.0,24,-99.99,,,-99.99,,2013-01-20 20:33:00,
2013-01-20 14:42:00,48.0,13.0,30.15,SE,130,1.0,3.0,24,-99.99,,,-99.99,,2013-01-20 20:42:00,
2013-01-20 14:53:00,48.0,13.0,30.15,SE,130,1.0,3.0,24,-99.99,,,-99.99,,2013-01-20 20:53:00,
2013-01-20 15:03:00,49.0,14.0,30.14,ESE,105,0.0,6.0,24,-99.99,,,-99.99,,2013-01-20 21:03:00,
2013-01-20 15:13:00,49.0,14.0,30.14,NNE,30,3.0,8.0,24,-99.99,,,-99.99,,2013-01-20 21:13:00,
2013-01-20 15:23:00,49.0,14.0,30.14,NNE,30,3.0,8.0,24,-99.99,,,-99.99,,2013-01-20 21:23:00,
2013-01-20 15:33:00,50.0,15.0,30.14,North,0,3.0,7.0,24,-99.99,,,-99.99,,2013-01-20 21:33:00,
2013-01-20 15:43:00,50.0,15.0,30.14,NNW,345,8.0,12.0,25,-99.99,,,-99.99,,2013-01-20 21:43:00,
2013-01-20 15:53:00,50.0,15.0,30.14,NNW,345,8.0,12.0,25,-99.99,,,-99.99,,2013-01-20 21:53:00,
2013-01-20 16:03:00,49.0,15.0,30.14,NNW,335,10.0,13.0,25,-99.99,,,-99.99,,2013-01-20 22:03:00,
2013-01-20 16:13:00,49.0,15.0,30.14,NNE,20,7.0,13.0,25,-99.99,,,-99.99,,2013-01-20 22:13:00,
2013-01-20 16:23:00,49.0,15.0,30.14,NNE,20,7.0,13.0,25,-99.99,,,-99.99,,2013-01-20 22:23:00,
2013-01-20 16:33:00,48.0,15.0,30.14,North,5,9.0,13.0,26,-99.99,,,-99.99,,2013-01-20 22:33:00,
2013-01-20 16:43:00,48.0,15.0,30.14,North,0,9.0,14.0,26,-99.99,,,-99.99,,2013-01-20 22:43:00,
2013-01-20 16:52:00,47.0,15.0,30.14,North,0,10.0,13.0,27,-99.99,,,-99.99,,2013-01-20 22:52:00,
2013-01-20 17:03:00,47.0,15.0,30.14,North,0,10.0,13.0,27,-99.99,,,-99.99,,2013-01-20 23:03:00,
2013-01-20 17:13:00,47.0,14.0,30.15,North,0,10.0,14.0,26,-99.99,,,-99.99,,2013-01-20 23:13:00,
2013-01-20 17:23:00,47.0,14.0,30.15,North,0,10.0,14.0,26,-99.99,,,-99.99,,2013-01-20 23:23:00,
2013-01-20 17:33:00,47.0,15.0,30.15,NNE,20,7.0,11.0,28,-99.99,,,-99.99,,2013-01-20 23:33:00,
2013-01-20 17:43:00,46.0,15.0,30.15,North,0,9.0,13.0,28,-99.99,,,-99.99,,2013-01-20 23:43:00,
2013-01-20 17:53:00,46.0,15.0,30.15,North,0,9.0,13.0,28,-99.99,,,-99.99,,2013-01-20 23:53:00,
2013-01-20 18:03:00,45.0,15.0,30.15,NNE,15,7.0,11.0,29,-99.99,,,-99.99,,2013-01-21 00:03:00,
2013-01-20 18:13:00,44.0,14.0,30.15,NNE,15,6.0,11.0,29,-99.99,,,-99.99,,2013-01-21 00:13:00,
2013-01-20 18:23:00,44.0,14.0,30.15,NNE,15,6.0,11.0,29,-99.99,,,-99.99,,2013-01-21 00:23:00,
2013-01-20 18:33:00,43.0,15.0,30.15,North,0,6.0,9.0,32,-99.99,,,-99.99,,2013-01-21 00:33:00,
2013-01-20 18:43:00,42.0,15.0,30.15,North,0,9.0,11.0,33,-99.99,,,-99.99,,2013-01-21 00:43:00,
2013-01-20 18:53:00,42.0,15.0,30.15,North,0,9.0,11.0,33,-99.99,,,-99.99,,2013-01-21 00:53:00,
2013-01-20 19:00:00,38.0,13.0,30.16,North,5,5.0,8.0,35,-99.99,,,-99.99,,2013-01-21 01:00:00,
2013-01-20 19:03:00,41.0,13.0,30.15,NNE,20,9.0,14.0,32,-99.99,,,-99.99,,2013-01-21 01:03:00,
2013-01-20 19:13:00,40.0,13.0,30.15,North,5,8.0,11.0,32,-99.99,,,-99.99,,2013-01-21 01:13:00,
2013-01-20 19:23:00,40.0,13.0,30.15,North,5,8.0,11.0,32,-99.99,,,-99.99,,2013-01-21 01:23:00,
2013-01-20 19:33:00,39.0,13.0,30.15,NNE,15,6.0,13.0,33,-99.99,,,-99.99,,2013-01-21 01:33:00,
2013-01-20 19:43:00,38.0,13.0,30.16,North,5,5.0,8.0,35,-99.99,,,-99.99,,2013-01-21 01:43:00,
2013-01-20 19:53:00,38.0,13.0,30.16,North,5,5.0,8.0,35,-99.99,,,-99.99,,2013-01-21 01:53:00,
2013-01-20 20:12:00,37.0,14.0,30.16,North,5,8.0,13.0,38,-99.99,,,-99.99,,2013-01-21 02:12:00,
2013-01-20 20:23:00,37.0,14.0,30.16,North,5,8.0,13.0,38,-99.99,,,-99.99,,2013-01-21 02:23:00,
2013-01-20 20:33:00,36.0,14.0,30.17,North,0,8.0,11.0,41,-99.99,,,-99.99,,2013-01-21 02:33:00,
2013-01-20 20:43:00,35.0,14.0,30.17,NNE,15,7.0,11.0,42,-99.99,,,-99.99,,2013-01-21 02:43:00,
2013-01-20 20:53:00,35.0,14.0,30.17,NNE,15,7.0,11.0,42,-99.99,,,-99.99,,2013-01-21 02:53:00,
2013-01-20 21:00:00,33.0,15.0,30.19,North,0,9.0,12.0,48,-99.99,,,-99.99,,2013-01-21 03:00:00,
2013-01-20 21:03:00,34.0,15.0,30.18,North,0,9.0,12.0,45,-99.99,,,-99.99,,2013-01-21 03:03:00,
2013-01-20 21:13:00,34.0,15.0,30.18,NNE,15,6.0,11.0,46,-99.99,,,-99.99,,2013-01-21 03:13:00,
2013-01-20 21:23:00,34.0,15.0,30.18,NNE,15,6.0,11.0,46,-99.99,,,-99.99,,2013-01-21 03:23:00,
2013-01-20 21:33:00,33.0,16.0,30.19,NNE,20,7.0,11.0,48,-99.99,,,-99.99,,2013-01-21 03:33:00,
2013-01-20 21:43:00,33.0,15.0,30.19,North,0,9.0,12.0,48,-99.99,,,-99.99,,2013-01-21 03:43:00,
2013-01-20 21:52:00,33.0,15.0,30.19,North,0,9.0,12.0,48,-99.99,,,-99.99,,2013-01-21 03:52:00,
2013-01-20 22:12:00,32.0,12.0,30.20,North,0,10.0,14.0,44,-99.99,,,-99.99,,2013-01-21 04:12:00,
2013-01-20 22:23:00,32.0,12.0,30.20,North,0,10.0,14.0,44,-99.99,,,-99.99,,2013-01-21 04:23:00,
2013-01-20 22:33:00,30.0,14.0,30.21,North,0,14.0,17.0,51,-99.99,,,-99.99,,2013-01-21 04:33:00,
2013-01-20 22:43:00,30.0,15.0,30.22,North,0,11.0,18.0,53,-99.99,,,-99.99,,2013-01-21 04:43:00,
2013-01-20 22:53:00,30.0,15.0,30.22,North,0,11.0,18.0,53,-99.99,,,-99.99,,2013-01-21 04:53:00,
2013-01-20 23:03:00,29.0,14.0,30.22,North,0,11.0,17.0,53,-99.99,,,-99.99,,2013-01-21 05:03:00,
2013-01-20 23:12:00,29.0,13.0,30.22,North,0,13.0,21.0,51,-99.99,,,-99.99,,2013-01-21 05:12:00,
2013-01-20 23:22:00,29.0,13.0,30.22,North,0,13.0,21.0,51,-99.99,,,-99.99,,2013-01-21 05:22:00,
2013-01-20 23:34:00,28.0,13.0,30.23,North,355,11.0,15.0,52,-99.99,,,-99.99,,2013-01-21 05:34:00,
2013-01-20 23:42:00,28.0,12.0,30.24,North,0,15.0,20.0,50,-99.99,,,-99.99,,2013-01-21 05:42:00,
2013-01-20 23:52:00,28.0,12.0,30.24,North,0,15.0,20.0,50,-99.99,,,-99.99,,2013-01-21 05:52:00,